Torna al catalogo

COSMOS 407

AttivoMilitareLEO
NORAD 5174·PAYLOAD·🇷🇺 Russia

Lanciato Apr 23, 1971 da Plesetsk Cosmodrome

Loading…

Prossimi Passaggi (prossime 24 ore)

TLE

AggiornatoSource: Space-Track

Epoca: Sep 14, 2026, 13:56 UTC

1 05174U 71035A   26257.58117784  .00000074  00000-0  35625-4 0  9992
2 05174  74.0441 306.9485 0017151 107.2273 253.0758 14.34266603893400

Traccia COSMOS 407 in tempo reale con AllMySat

Download on the App Store